Time,TemperatureF,DewpointF,PressureIn,WindDirection,WindDirectionDegrees,WindSpeedMPH,WindSpeedGustMPH,Humidity,HourlyPrecipIn,Conditions,Clouds,dailyrainin,SolarRadiationWatts/m^2,SoftwareType,DateUTC
2013-04-23 00:00:00,70.7,9.0,29.78,SSW,207,0.0,4.0,9,0.00,,,0.01,0,Wunderground v.1.15,2013-04-23 04:00:00,
2013-04-23 00:10:00,69.3,10.3,29.78,West,277,0.0,0.0,10,0.00,,,0.01,0,Wunderground v.1.15,2013-04-23 04:10:00,
2013-04-23 00:20:00,68.4,9.6,29.78,West,268,0.0,1.0,10,0.00,,,0.01,0,Wunderground v.1.15,2013-04-23 04:20:00,
2013-04-23 00:30:00,67.9,9.2,29.78,West,270,0.0,0.0,10,0.00,,,0.01,0,Wunderground v.1.15,2013-04-23 04:30:00,
2013-04-23 00:40:00,67.8,9.2,29.78,West,281,0.0,0.0,10,0.00,,,0.01,0,Wunderground v.1.15,2013-04-23 04:40:00,
2013-04-23 00:50:00,67.0,10.7,29.78,West,281,0.0,0.0,11,0.00,,,0.01,0,Wunderground v.1.15,2013-04-23 04:50:00,
2013-04-23 01:00:00,65.9,11.8,29.78,SW,227,0.0,0.0,12,0.00,,,0.01,0,Wunderground v.1.15,2013-04-23 05:00:00,
2013-04-23 01:10:00,65.7,11.6,29.78,WNW,292,1.0,13.0,12,0.00,,,0.01,0,Wunderground v.1.15,2013-04-23 05:10:00,
2013-04-23 01:20:00,66.9,12.6,29.78,SSW,192,3.0,13.0,12,0.00,,,0.01,0,Wunderground v.1.15,2013-04-23 05:20:00,
2013-04-23 01:30:00,66.3,12.1,29.78,WSW,238,3.0,3.0,12,0.00,,,0.01,0,Wunderground v.1.15,2013-04-23 05:30:00,
2013-04-23 01:40:00,66.5,14.1,29.77,SSW,211,3.0,13.0,13,0.00,,,0.01,0,Wunderground v.1.15,2013-04-23 05:40:00,
2013-04-23 01:50:00,67.9,13.3,29.77,SW,229,5.0,13.0,12,0.00,,,0.01,0,Wunderground v.1.15,2013-04-23 05:50:00,
2013-04-23 02:00:00,69.4,14.5,29.77,SW,229,6.0,6.0,12,0.00,,,0.01,0,Wunderground v.1.15,2013-04-23 06:00:00,
2013-04-23 02:10:00,67.7,13.2,29.77,SW,219,6.0,6.0,12,0.00,,,0.01,0,Wunderground v.1.15,2013-04-23 06:10:00,
2013-04-23 02:20:00,66.7,14.2,29.77,SSW,211,8.0,13.0,13,0.00,,,0.01,0,Wunderground v.1.15,2013-04-23 06:20:00,
2013-04-23 02:30:00,67.1,14.5,29.77,SSW,200,10.0,14.0,13,0.00,,,0.01,0,Wunderground v.1.15,2013-04-23 06:30:00,
2013-04-23 02:40:00,67.1,16.3,29.77,SW,216,12.0,17.0,14,0.00,,,0.01,0,Wunderground v.1.15,2013-04-23 06:40:00,
2013-04-23 02:50:00,66.9,16.1,29.77,SW,220,14.0,17.0,14,0.00,,,0.01,0,Wunderground v.1.15,2013-04-23 06:50:00,
2013-04-23 03:00:00,67.0,16.2,29.76,SW,215,14.0,14.0,14,0.00,,,0.01,0,Wunderground v.1.15,2013-04-23 07:00:00,
2013-04-23 03:10:00,67.4,14.8,29.76,SW,223,14.0,14.0,13,0.00,,,0.00,0,Wunderground v.1.15,2013-04-23 07:10:00,
2013-04-23 03:20:00,67.1,14.5,29.76,SSW,192,9.0,9.0,13,0.00,,,0.00,0,Wunderground v.1.15,2013-04-23 07:20:00,
2013-04-23 03:30:00,66.5,14.1,29.76,SW,222,5.0,13.0,13,0.00,,,0.00,0,Wunderground v.1.15,2013-04-23 07:30:00,
2013-04-23 03:40:00,67.2,16.3,29.76,SW,227,7.0,7.0,14,0.00,,,0.00,0,Wunderground v.1.15,2013-04-23 07:40:00,
2013-04-23 03:50:00,67.7,15.0,29.76,SSW,208,8.0,8.0,13,0.00,,,0.00,0,Wunderground v.1.15,2013-04-23 07:50:00,
2013-04-23 04:00:00,67.0,16.2,29.75,SSW,203,7.0,7.0,14,0.00,,,0.00,0,Wunderground v.1.15,2013-04-23 08:00:00,
2013-04-23 04:10:00,64.5,15.8,29.76,SW,217,6.0,6.0,15,0.00,,,0.00,0,Wunderground v.1.15,2013-04-23 08:10:00,
2013-04-23 04:20:00,63.1,16.1,29.75,SW,217,5.0,13.0,16,0.00,,,0.00,0,Wunderground v.1.15,2013-04-23 08:20:00,
2013-04-23 04:30:00,62.6,18.4,29.75,SSW,213,5.0,13.0,18,0.00,,,0.00,0,Wunderground v.1.15,2013-04-23 08:30:00,
2013-04-23 04:40:00,63.5,19.2,29.74,South,169,7.0,13.0,18,0.00,,,0.00,0,Wunderground v.1.15,2013-04-23 08:40:00,
2013-04-23 04:50:00,64.3,19.8,29.74,WSW,244,10.0,13.0,18,0.00,,,0.00,0,Wunderground v.1.15,2013-04-23 08:50:00,
2013-04-23 05:00:00,65.5,20.8,29.73,SW,229,12.0,19.0,18,0.00,,,0.00,0,Wunderground v.1.15,2013-04-23 09:00:00,
2013-04-23 05:10:00,64.8,20.2,29.73,SW,221,12.0,12.0,18,0.00,,,0.00,0,Wunderground v.1.15,2013-04-23 09:10:00,
2013-04-23 05:20:00,64.0,20.9,29.73,SW,225,11.0,18.0,19,0.00,,,0.00,0,Wunderground v.1.15,2013-04-23 09:20:00,
2013-04-23 05:30:00,64.3,21.1,29.73,SW,217,11.0,11.0,19,0.00,,,0.00,0,Wunderground v.1.15,2013-04-23 09:30:00,
2013-04-23 05:40:00,64.5,21.3,29.74,SW,230,10.0,16.0,19,0.00,,,0.00,0,Wunderground v.1.15,2013-04-23 09:40:00,
2013-04-23 05:50:00,64.1,20.9,29.74,SW,216,10.0,14.0,19,0.00,,,0.00,0,Wunderground v.1.15,2013-04-23 09:50:00,
2013-04-23 06:00:00,63.2,21.4,29.74,SW,215,10.0,10.0,20,0.00,,,0.00,0,Wunderground v.1.15,2013-04-23 10:00:00,
2013-04-23 06:10:00,62.9,21.2,29.73,SSW,202,7.0,13.0,20,0.00,,,0.00,0,Wunderground v.1.15,2013-04-23 10:10:00,
2013-04-23 06:20:00,63.0,21.2,29.73,SSW,200,7.0,13.0,20,0.00,,,0.00,0,Wunderground v.1.15,2013-04-23 10:20:00,
2013-04-23 06:30:00,62.5,22.0,29.73,SW,230,8.0,8.0,21,0.00,,,0.00,0,Wunderground v.1.15,2013-04-23 10:30:00,
2013-04-23 06:40:00,61.7,21.3,29.73,SSW,209,6.0,13.0,21,0.00,,,0.00,0,Wunderground v.1.15,2013-04-23 10:40:00,
2013-04-23 06:50:00,61.1,21.9,29.73,SSW,197,4.0,4.0,22,0.00,,,0.00,0,Wunderground v.1.15,2013-04-23 10:50:00,
2013-04-23 07:00:00,61.0,21.8,29.73,South,184,5.0,5.0,22,0.00,,,0.00,0,Wunderground v.1.15,2013-04-23 11:00:00,
2013-04-23 07:10:00,60.7,21.6,29.72,South,190,7.0,7.0,22,0.00,,,0.00,0,Wunderground v.1.15,2013-04-23 11:10:00,
2013-04-23 07:20:00,60.5,21.4,29.71,South,181,8.0,13.0,22,0.00,,,0.00,0,Wunderground v.1.15,2013-04-23 11:20:00,
2013-04-23 07:30:00,59.9,20.9,29.71,SSE,167,8.0,13.0,22,0.00,,,0.00,0,Wunderground v.1.15,2013-04-23 11:30:00,
2013-04-23 07:40:00,59.7,20.7,29.71,South,177,9.0,13.0,22,0.00,,,0.00,0,Wunderground v.1.15,2013-04-23 11:40:00,
2013-04-23 07:50:00,59.9,20.9,29.72,SSE,161,8.0,16.0,22,0.00,,,0.00,0,Wunderground v.1.15,2013-04-23 11:50:00,
2013-04-23 08:00:00,59.6,20.7,29.72,South,183,8.0,8.0,22,0.00,,,0.00,0,Wunderground v.1.15,2013-04-23 12:00:00,
2013-04-23 08:10:00,58.4,20.7,29.73,SSW,197,8.0,8.0,23,0.00,,,0.00,0,Wunderground v.1.15,2013-04-23 12:10:00,
2013-04-23 08:20:00,58.0,21.4,29.72,South,172,8.0,13.0,24,0.00,,,0.00,0,Wunderground v.1.15,2013-04-23 12:20:00,
2013-04-23 08:30:00,57.9,21.3,29.72,South,185,10.0,10.0,24,0.00,,,0.00,0,Wunderground v.1.15,2013-04-23 12:30:00,
2013-04-23 08:40:00,58.1,21.4,29.72,SSE,158,9.0,9.0,24,0.00,,,0.00,0,Wunderground v.1.15,2013-04-23 12:40:00,
2013-04-23 08:50:00,57.5,20.9,29.73,SSW,196,9.0,9.0,24,0.00,,,0.00,9,Wunderground v.1.15,2013-04-23 12:50:00,
2013-04-23 09:00:00,57.4,20.9,29.73,South,170,8.0,16.0,24,0.00,,,0.00,16,Wunderground v.1.15,2013-04-23 13:00:00,
2013-04-23 09:10:00,58.0,20.4,29.73,South,186,9.0,10.0,23,0.00,,,0.00,39,Wunderground v.1.15,2013-04-23 13:10:00,
2013-04-23 09:20:00,58.6,20.9,29.74,South,191,8.0,8.0,23,0.00,,,0.00,72,Wunderground v.1.15,2013-04-23 13:20:00,
2013-04-23 09:30:00,59.1,21.3,29.74,SSW,199,8.0,8.0,23,0.00,,,0.00,111,Wunderground v.1.15,2013-04-23 13:30:00,
2013-04-23 09:40:00,60.2,21.2,29.74,SW,221,9.0,9.0,22,0.00,,,0.00,149,Wunderground v.1.15,2013-04-23 13:40:00,
2013-04-23 09:50:00,61.2,20.9,29.74,SSW,210,9.0,14.0,21,0.00,,,0.00,197,Wunderground v.1.15,2013-04-23 13:50:00,
2013-04-23 10:00:00,62.2,20.6,29.74,SSW,209,10.0,12.0,20,0.00,,,0.00,234,Wunderground v.1.15,2013-04-23 14:00:00,
2013-04-23 10:10:00,63.0,21.2,29.75,SSW,200,9.0,9.0,20,0.00,,,0.00,269,Wunderground v.1.15,2013-04-23 14:10:00,
2013-04-23 10:20:00,64.0,20.9,29.75,SSW,200,9.0,9.0,19,0.00,,,0.00,308,Wunderground v.1.15,2013-04-23 14:20:00,
2013-04-23 10:30:00,64.6,21.4,29.74,SSW,202,11.0,11.0,19,0.00,,,0.00,348,Wunderground v.1.15,2013-04-23 14:30:00,
2013-04-23 10:40:00,65.4,20.7,29.75,SSW,208,8.0,19.0,18,0.00,,,0.00,387,Wunderground v.1.15,2013-04-23 14:40:00,
2013-04-23 10:50:00,66.0,19.9,29.75,SSW,194,8.0,8.0,17,0.00,,,0.00,422,Wunderground v.1.15,2013-04-23 14:50:00,
2013-04-23 11:00:00,66.3,20.1,29.75,SSE,168,9.0,9.0,17,0.00,,,0.00,459,Wunderground v.1.15,2013-04-23 15:00:00,
2013-04-23 11:10:00,67.0,20.7,29.75,South,171,9.0,14.0,17,0.00,,,0.00,494,Wunderground v.1.15,2013-04-23 15:10:00,
2013-04-23 11:20:00,67.7,21.3,29.75,South,169,8.0,8.0,17,0.00,,,0.00,526,Wunderground v.1.15,2013-04-23 15:20:00,
2013-04-23 11:30:00,68.8,20.7,29.75,South,178,7.0,7.0,16,0.00,,,0.00,564,Wunderground v.1.15,2013-04-23 15:30:00,
2013-04-23 11:40:00,70.3,21.9,29.76,South,184,6.0,6.0,16,0.00,,,0.00,598,Wunderground v.1.15,2013-04-23 15:40:00,
2013-04-23 11:50:00,71.3,21.2,29.76,South,186,7.0,9.0,15,0.00,,,0.00,626,Wunderground v.1.15,2013-04-23 15:50:00,
2013-04-23 12:00:00,71.7,21.5,29.76,SSE,160,8.0,8.0,15,0.00,,,0.00,661,Wunderground v.1.15,2013-04-23 16:00:00,
2013-04-23 12:10:00,72.1,21.9,29.76,SE,140,7.0,7.0,15,0.00,,,0.00,693,Wunderground v.1.15,2013-04-23 16:10:00,
2013-04-23 12:20:00,72.5,22.2,29.75,SSE,148,5.0,5.0,15,0.00,,,0.00,719,Wunderground v.1.15,2013-04-23 16:20:00,
2013-04-23 12:30:00,74.2,21.9,29.76,South,188,4.0,4.0,14,0.00,,,0.00,749,Wunderground v.1.15,2013-04-23 16:30:00,
2013-04-23 12:40:00,75.1,22.6,29.75,SW,219,7.0,7.0,14,0.00,,,0.00,777,Wunderground v.1.15,2013-04-23 16:40:00,
2013-04-23 12:50:00,75.5,22.9,29.75,SSW,194,9.0,25.0,14,0.00,,,0.00,803,Wunderground v.1.15,2013-04-23 16:50:00,
2013-04-23 13:00:00,76.0,21.6,29.75,SSW,207,11.0,25.0,13,0.00,,,0.00,823,Wunderground v.1.15,2013-04-23 17:00:00,
2013-04-23 13:10:00,76.5,22.0,29.75,SW,217,10.0,10.0,13,0.00,,,0.00,851,Wunderground v.1.15,2013-04-23 17:10:00,
2013-04-23 13:20:00,76.7,22.1,29.75,SW,220,10.0,25.0,13,0.00,,,0.00,874,Wunderground v.1.15,2013-04-23 17:20:00,
2013-04-23 13:30:00,77.5,22.7,29.75,South,190,8.0,8.0,13,0.00,,,0.00,909,Wunderground v.1.15,2013-04-23 17:30:00,
2013-04-23 13:40:00,78.1,21.3,29.75,WSW,240,8.0,25.0,12,0.00,,,0.00,949,Wunderground v.1.15,2013-04-23 17:40:00,
2013-04-23 13:50:00,78.1,21.3,29.75,SW,233,8.0,8.0,12,0.00,,,0.00,846,Wunderground v.1.15,2013-04-23 17:50:00,
2013-04-23 14:00:00,78.4,21.5,29.75,SW,232,9.0,9.0,12,0.00,,,0.00,865,Wunderground v.1.15,2013-04-23 18:00:00,
2013-04-23 14:10:00,79.1,22.1,29.74,WSW,246,8.0,9.0,12,0.00,,,0.00,970,Wunderground v.1.15,2013-04-23 18:10:00,
2013-04-23 14:20:00,79.2,22.2,29.74,SSW,203,9.0,9.0,12,0.00,,,0.00,983,Wunderground v.1.15,2013-04-23 18:20:00,
2013-04-23 14:30:00,79.8,20.6,29.73,WSW,257,10.0,10.0,11,0.00,,,0.00,984,Wunderground v.1.15,2013-04-23 18:30:00,
2013-04-23 14:40:00,79.9,20.7,29.73,West,275,8.0,8.0,11,0.00,,,0.00,991,Wunderground v.1.15,2013-04-23 18:40:00,
2013-04-23 14:50:00,80.4,18.8,29.73,WSW,250,8.0,10.0,10,0.00,,,0.00,993,Wunderground v.1.15,2013-04-23 18:50:00,
2013-04-23 15:00:00,79.9,18.4,29.72,WSW,257,9.0,9.0,10,0.00,,,0.00,998,Wunderground v.1.15,2013-04-23 19:00:00,
2013-04-23 15:10:00,80.7,21.3,29.73,SW,218,10.0,10.0,11,0.00,,,0.00,1009,Wunderground v.1.15,2013-04-23 19:10:00,
2013-04-23 15:20:00,81.2,21.7,29.72,SSW,193,11.0,11.0,11,0.00,,,0.00,962,Wunderground v.1.15,2013-04-23 19:20:00,
2013-04-23 15:30:00,81.4,21.8,29.72,SW,231,11.0,11.0,11,0.00,,,0.00,1004,Wunderground v.1.15,2013-04-23 19:30:00,
2013-04-23 15:40:00,81.5,17.2,29.72,WSW,246,8.0,8.0,9,0.00,,,0.00,939,Wunderground v.1.15,2013-04-23 19:40:00,
2013-04-23 15:50:00,81.6,14.5,29.72,WSW,242,5.0,21.0,8,0.00,,,0.00,1021,Wunderground v.1.15,2013-04-23 19:50:00,
2013-04-23 16:00:00,82.3,15.1,29.72,WSW,256,7.0,21.0,8,0.00,,,0.00,991,Wunderground v.1.15,2013-04-23 20:00:00,
2013-04-23 16:10:00,82.8,15.4,29.72,WSW,242,6.0,21.0,8,0.00,,,0.00,981,Wunderground v.1.15,2013-04-23 20:10:00,
2013-04-23 16:20:00,83.2,15.7,29.71,SW,231,9.0,21.0,8,0.00,,,0.00,969,Wunderground v.1.15,2013-04-23 20:20:00,
2013-04-23 16:30:00,83.4,15.9,29.71,SW,232,8.0,21.0,8,0.00,,,0.00,958,Wunderground v.1.15,2013-04-23 20:30:00,
2013-04-23 16:40:00,83.1,18.4,29.71,West,281,10.0,10.0,9,0.00,,,0.00,944,Wunderground v.1.15,2013-04-23 20:40:00,
2013-04-23 16:50:00,82.3,17.8,29.70,SSW,213,8.0,21.0,9,0.00,,,0.00,932,Wunderground v.1.15,2013-04-23 20:50:00,
2013-04-23 17:00:00,82.9,18.2,29.70,WSW,255,9.0,21.0,9,0.00,,,0.00,912,Wunderground v.1.15,2013-04-23 21:00:00,
2013-04-23 17:10:00,82.9,18.2,29.70,SW,225,10.0,21.0,9,0.00,,,0.00,900,Wunderground v.1.15,2013-04-23 21:10:00,
2013-04-23 17:20:00,83.2,15.7,29.70,West,275,11.0,21.0,8,0.00,,,0.00,895,Wunderground v.1.15,2013-04-23 21:20:00,
2013-04-23 17:30:00,83.3,15.8,29.70,WSW,252,7.0,21.0,8,0.00,,,0.00,875,Wunderground v.1.15,2013-04-23 21:30:00,
2013-04-23 17:40:00,83.5,16.0,29.69,NW,304,7.0,7.0,8,0.00,,,0.00,870,Wunderground v.1.15,2013-04-23 21:40:00,
2013-04-23 17:50:00,83.7,16.1,29.69,West,261,7.0,7.0,8,0.00,,,0.00,816,Wunderground v.1.15,2013-04-23 21:50:00,
2013-04-23 18:31:00,83.6,16.0,29.68,WSW,246,8.0,14.0,8,0.00,,,0.00,691,Wunderground v.1.15,2013-04-23 22:31:00,
2013-04-23 18:40:00,83.4,15.9,29.68,WSW,256,9.0,12.0,8,0.00,,,0.00,656,Wunderground v.1.15,2013-04-23 22:40:00,
2013-04-23 18:50:00,83.0,12.5,29.68,West,281,8.0,10.0,7,0.00,,,0.00,626,Wunderground v.1.15,2013-04-23 22:50:00,
2013-04-23 19:00:00,82.7,15.4,29.68,WNW,295,9.0,9.0,8,0.00,,,0.00,587,Wunderground v.1.15,2013-04-23 23:00:00,
2013-04-23 19:10:00,82.1,14.9,29.69,NW,311,9.0,9.0,8,0.00,,,0.00,557,Wunderground v.1.15,2013-04-23 23:10:00,
2013-04-23 19:20:00,81.8,17.4,29.69,West,259,7.0,17.0,9,0.00,,,0.00,524,Wunderground v.1.15,2013-04-23 23:20:00,
2013-04-23 19:30:00,82.0,17.6,29.69,WSW,244,10.0,17.0,9,0.00,,,0.00,483,Wunderground v.1.15,2013-04-23 23:30:00,
2013-04-23 19:40:00,81.9,17.5,29.69,West,269,9.0,9.0,9,0.00,,,0.00,448,Wunderground v.1.15,2013-04-23 23:40:00,
2013-04-23 19:50:00,81.7,17.3,29.70,SW,234,4.0,17.0,9,0.00,,,0.00,410,Wunderground v.1.15,2013-04-23 23:50:00,
2013-04-23 20:00:00,81.5,17.2,29.70,SW,234,8.0,8.0,9,0.00,,,0.00,373,Wunderground v.1.15,2013-04-24 00:00:00,
2013-04-23 20:10:00,81.3,17.0,29.70,South,173,7.0,7.0,9,0.00,,,0.00,336,Wunderground v.1.15,2013-04-24 00:10:00,
2013-04-23 20:20:00,81.0,16.8,29.70,WSW,250,7.0,7.0,9,0.00,,,0.00,301,Wunderground v.1.15,2013-04-24 00:20:00,
2013-04-23 20:29:00,80.8,14.0,29.69,WNW,292,4.0,7.0,8,0.00,,,0.00,264,Wunderground v.1.15,2013-04-24 00:29:00,
2013-04-23 20:40:00,80.5,16.4,29.69,West,273,8.0,8.0,9,0.00,,,0.00,220,Wunderground v.1.15,2013-04-24 00:40:00,
2013-04-23 21:00:00,79.2,15.5,29.70,West,270,9.0,9.0,9,0.00,,,0.00,132,Wunderground v.1.15,2013-04-24 01:00:00,
2013-04-23 21:10:00,79.0,15.3,29.69,West,268,4.0,4.0,9,0.00,,,0.00,91,Wunderground v.1.15,2013-04-24 01:10:00,
2013-04-23 21:20:00,78.6,15.0,29.70,West,277,5.0,5.0,9,0.00,,,0.00,58,Wunderground v.1.15,2013-04-24 01:20:00,
2013-04-23 21:30:00,78.0,14.5,29.70,WSW,250,3.0,18.0,9,0.00,,,0.00,32,Wunderground v.1.15,2013-04-24 01:30:00,
2013-04-23 21:40:00,77.1,16.3,29.70,WSW,247,3.0,3.0,10,0.00,,,0.00,14,Wunderground v.1.15,2013-04-24 01:40:00,
2013-04-23 21:50:00,75.7,15.2,29.71,WSW,246,1.0,1.0,10,0.00,,,0.00,7,Wunderground v.1.15,2013-04-24 01:50:00,
2013-04-23 21:59:00,74.2,14.1,29.71,WSW,246,1.0,1.0,10,0.00,,,0.00,0,Wunderground v.1.15,2013-04-24 01:59:00,
2013-04-23 22:09:00,73.2,15.5,29.71,WSW,256,2.0,2.0,11,0.00,,,0.00,0,Wunderground v.1.15,2013-04-24 02:09:00,
2013-04-23 22:20:00,72.7,15.1,29.72,West,261,1.0,1.0,11,0.00,,,0.00,0,Wunderground v.1.15,2013-04-24 02:20:00,
2013-04-23 22:30:00,71.7,16.3,29.72,WSW,254,0.0,0.0,12,0.00,,,0.00,0,Wunderground v.1.15,2013-04-24 02:30:00,
2013-04-23 22:40:00,70.4,15.3,29.73,WSW,257,0.0,0.0,12,0.00,,,0.00,0,Wunderground v.1.15,2013-04-24 02:40:00,
2013-04-23 22:50:00,69.4,16.4,29.73,WSW,257,0.0,0.0,13,0.00,,,0.00,0,Wunderground v.1.15,2013-04-24 02:50:00,